TimeCDT,TemperatureF,Dew PointF,Humidity,Sea Level PressureIn,VisibilityMPH,Wind Direction,Wind SpeedMPH,Gust SpeedMPH,PrecipitationIn,Events,Conditions,WindDirDegrees,DateUTC
5:55 AM,82.4,73.4,74,29.98,10.0,SSE,5.8,-,N/A,,Unknown,160,2013-09-20 10:55:00
6:55 AM,77.9,74.3,89,29.98,10.0,ENE,4.6,-,N/A,,Mostly Cloudy,60,2013-09-20 11:55:00
7:55 AM,79.9,74.3,83,29.98,10.0,East,3.5,-,N/A,,Scattered Clouds,80,2013-09-20 12:55:00
8:55 AM,84.4,75.0,73,29.98,10.0,SSE,5.8,-,N/A,,Mostly Cloudy,160,2013-09-20 13:55:00
9:55 AM,87.1,74.8,67,29.98,10.0,SSE,11.5,-,N/A,,Mostly Cloudy,150,2013-09-20 14:55:00
10:55 AM,87.8,75.6,67,29.98,10.0,SSE,9.2,-,N/A,,Mostly Cloudy,160,2013-09-20 15:55:00
11:55 AM,88.0,75.9,67,29.97,10.0,SE,9.2,-,N/A,,Mostly Cloudy,140,2013-09-20 16:55:00
12:55 PM,88.9,75.0,63,29.94,10.0,SSE,11.5,19.6,N/A,,Mostly Cloudy,160,2013-09-20 17:55:00
1:55 PM,88.5,75.6,65,29.91,10.0,SSE,10.4,-,N/A,,Scattered Clouds,160,2013-09-20 18:55:00
2:55 PM,88.7,75.7,65,29.88,10.0,South,12.7,20.7,N/A,,Partly Cloudy,170,2013-09-20 19:55:00
3:55 PM,83.5,76.6,80,29.87,10.0,South,12.7,-,N/A,,Scattered Clouds,190,2013-09-20 20:55:00
4:17 PM,82.4,75.2,79,29.86,10.0,South,15.0,-,N/A,Rain,Light Rain,180,2013-09-20 21:17:00
4:26 PM,80.6,73.4,79,29.86,10.0,South,15.0,24.2,N/A,,Scattered Clouds,170,2013-09-20 21:26:00
4:32 PM,80.6,73.4,79,29.86,9.0,South,12.7,20.7,N/A,Rain,Light Rain,180,2013-09-20 21:32:00
4:52 PM,78.8,75.2,89,29.86,2.5,SSE,8.1,-,N/A,Rain,Light Rain,150,2013-09-20 21:52:00
4:58 PM,78.3,75.0,90,29.86,2.5,South,9.2,-,0.11,Rain,Light Rain,170,2013-09-20 21:58:00
5:03 PM,78.8,75.2,89,29.86,10.0,SSE,8.1,-,N/A,Rain,Light Rain,150,2013-09-20 22:03:00
5:19 PM,78.8,75.2,89,29.87,10.0,ESE,8.1,-,N/A,,Mostly Cloudy,120,2013-09-20 22:19:00
5:34 PM,78.8,77.0,94,29.86,10.0,SE,3.5,-,N/A,,Mostly Cloudy,140,2013-09-20 22:34:00
5:58 PM,79.5,76.5,90,29.86,10.0,ESE,2.3,-,0.01,,Partly Cloudy,110,2013-09-20 22:58:00
6:58 PM,81.9,75.4,81,29.86,10.0,South,6.9,-,N/A,,Clear,180,2013-09-20 23:58:00
7:58 PM,82.0,73.9,76,29.87,10.0,South,10.4,-,N/A,,Partly Cloudy,190,2013-09-21 00:58:00
8:58 PM,82.2,75.0,79,29.86,10.0,South,9.2,-,N/A,,Partly Cloudy,190,2013-09-21 01:58:00
9:58 PM,82.6,74.5,76,29.86,10.0,South,10.4,-,N/A,,Clear,190,2013-09-21 02:58:00
10:58 PM,82.2,74.7,78,29.85,10.0,SSW,12.7,-,N/A,,Clear,200,2013-09-21 03:58:00
11:58 PM,82.4,74.5,77,29.84,10.0,South,10.4,-,N/A,,Clear,190,2013-09-21 04:58:00